Weather History for London, United Kingdom

Change the Weather History Date:

Sunday, October 30, 2011

  Actual Average Record
Temperature  
Mean Temperature 58 °F -  
Max Temperature 62 °F 50 °F 66 °F (2001)
Min Temperature 55 °F 39 °F 28 °F (1997)
Degree Days  
Heating Degree Days 6    
Growing Degree Days 8 (Base 50)    
Moisture  
Dew Point 56 °F    
Average Humidity 87    
Maximum Humidity 94    
Minimum Humidity 75    
Precipitation  
Precipitation 0.00 in - - ()
Sea Level Pressure  
Sea Level Pressure 30.06 in    
Wind  
Wind Speed 10 mph ()    
Max Wind Speed 14 mph    
Max Gust Speed 18 mph    
Visibility 7.0 miles    
Events Rain    
Averages and records for this station are not official NWS values.
T = Trace of Precipitation, MM = Missing Value Source: Averaged Metar Reports

Daily Weather History Graph

Daily Weather History Graph

Search for Another Location

Airport:

Trip Planner

Search our weather history database for the weather conditions in past years. The results will help you decide how hot, cold, wet, or windy it might be!

Date:

Astronomy

Oct. 30, 2011 Rise Set
Actual Time 6:50 AM GMT 4:39 PM GMT
Civil Twilight 6:16 AM GMT 5:14 PM GMT
Nautical Twilight 5:36 AM GMT 5:53 PM GMT
Astronomical Twilight 4:58 AM GMT 6:31 PM GMT
Moon 11:19 AM GMT (10/30) 7:29 PM GMT (10/30)
Length of Visible Light 10h 58m
Length of Day
9h 48m
Waxing Crescent, 18% of the Moon is Illuminated
Oct 30
Waxing Crescent
Nov 2
First Quarter
Nov 10
Full
Nov 18
Last Quarter
Nov 25
New

Hourly Weather History & Observations

Time (GMT) Temp. Dew Point Humidity Pressure Visibility Wind Dir Wind Speed Gust Speed Precip Events Conditions
12:20 AM 57.2 °F 53.6 °F 88% 30.06 in 6.2 mi SW 13.8 mph - N/A   Mostly Cloudy
12:50 AM 57 °F 54 °F 84% 30.07 in 12 mi SSW 13.8 mph - -   Overcast
12:50 AM 57.2 °F 53.6 °F 88% 30.06 in 6.2 mi SW 12.7 mph - N/A   Mostly Cloudy
1:20 AM 57.2 °F 53.6 °F 88% 30.06 in 6.2 mi SW 11.5 mph - N/A   Mostly Cloudy
1:50 AM 57.2 °F 53.6 °F 88% 30.06 in 6.2 mi SSW 10.4 mph - N/A   Mostly Cloudy
1:20 AM 57.2 °F 53.6 °F 88% 30.06 in 6.2 mi SW 10.4 mph - N/A   Mostly Cloudy
1:50 AM 57.2 °F 53.6 °F 88% 30.04 in 6.2 mi SW 11.5 mph - N/A   Mostly Cloudy
2:20 AM 59.0 °F 53.6 °F 82% 30.04 in 6.2 mi SW 9.2 mph - N/A   Mostly Cloudy
2:50 AM 59 °F 55 °F 82% 30.05 in 12 mi SSW 13.8 mph - -   Mostly Cloudy
2:50 AM 59.0 °F 55.4 °F 88% 30.04 in 6.2 mi SSW 10.4 mph - N/A   Mostly Cloudy
3:20 AM 59.0 °F 55.4 °F 88% 30.04 in 6.2 mi SW 11.5 mph - N/A   Mostly Cloudy
3:50 AM 59.0 °F 55.4 °F 88% 30.04 in 6.2 mi SW 11.5 mph - N/A   Mostly Cloudy
4:20 AM 59.0 °F 55.4 °F 88% 30.04 in 6.2 mi SW 9.2 mph - N/A   Mostly Cloudy
4:50 AM 59.0 °F 55.4 °F 88% 30.04 in 6.2 mi SW 9.2 mph - N/A   Mostly Cloudy
5:20 AM 59.0 °F 55.4 °F 88% 30.06 in 6.2 mi SSW 9.2 mph - N/A   Mostly Cloudy
5:50 AM 59 °F 55 °F 83% 30.05 in 14 mi SSW 10.4 mph - -  
5:50 AM 59.0 °F 55.4 °F 88% 30.04 in 6.2 mi SSW 9.2 mph - N/A   Mostly Cloudy
6:20 AM 57.2 °F 55.4 °F 94% 30.04 in 6.2 mi SSW 8.1 mph - N/A   Mostly Cloudy
6:50 AM 59.0 °F 55.4 °F 88% 30.06 in 6.2 mi SSW 6.9 mph 18.4 mph N/A   Mostly Cloudy
7:20 AM 59.0 °F 55.4 °F 88% 30.06 in 6.2 mi SSW 8.1 mph - N/A   Partly Cloudy
7:50 AM 59.0 °F 55.4 °F 88% 30.06 in 6.2 mi SW 9.2 mph - N/A   Mostly Cloudy
8:20 AM 59.0 °F 55.4 °F 88% 30.06 in 6.2 mi SW 9.2 mph - N/A   Mostly Cloudy
8:50 AM 60 °F 55 °F 78% 30.09 in 14 mi SSW 12.7 mph - -   Overcast
8:50 AM 60.8 °F 55.4 °F 82% 30.09 in 6.2 mi SW 10.4 mph - N/A   Mostly Cloudy
9:20 AM 60.8 °F 55.4 °F 82% 30.09 in 6.2 mi SW 11.5 mph - N/A   Mostly Cloudy
9:50 AM 60.8 °F 55.4 °F 82% 30.09 in 6.2 mi SW 12.7 mph - N/A   Mostly Cloudy
10:20 AM 60.8 °F 55.4 °F 82% 30.09 in 6.2 mi SW 11.5 mph - N/A   Scattered Clouds
10:50 AM 60.8 °F 55.4 °F 82% 30.09 in 6.2 mi SSW 10.4 mph - N/A   Scattered Clouds
11:20 AM 60.8 °F 55.4 °F 82% 30.09 in 6.2 mi SW 11.5 mph - N/A   Mostly Cloudy
11:50 AM 62 °F 56 °F 75% 30.09 in 13 mi SSW 13.8 mph - -   Mostly Cloudy
11:50 AM 60.8 °F 55.4 °F 82% 30.09 in 6.2 mi SSW 13.8 mph - N/A   Mostly Cloudy
12:20 PM 60.8 °F 55.4 °F 82% 30.06 in 6.2 mi SW 11.5 mph - N/A   Mostly Cloudy
12:50 PM 60.8 °F 55.4 °F 82% 30.06 in 6.2 mi SW 13.8 mph - N/A   Mostly Cloudy
1:20 PM 60.8 °F 57.2 °F 88% 30.06 in 6.2 mi SSW 12.7 mph - N/A   Mostly Cloudy
1:50 PM 60.8 °F 57.2 °F 88% 30.06 in 6.2 mi SSW 11.5 mph - N/A   Mostly Cloudy
2:20 PM 60.8 °F 57.2 °F 88% 30.06 in 6.2 mi SSW 10.4 mph - N/A   Mostly Cloudy
2:50 PM 61 °F 57 °F 83% 30.06 in 7 mi SSW 10.4 mph - - Rain Light Rain Showers
2:50 PM 60.8 °F 57.2 °F 88% 30.06 in 6.2 mi SSW 10.4 mph - N/A   Mostly Cloudy
3:20 PM 60.8 °F 57.2 °F 88% 30.04 in 6.2 mi SSW 11.5 mph - N/A   Light Drizzle
3:50 PM 60.8 °F 57.2 °F 88% 30.04 in 6.2 mi SSW 9.2 mph - N/A   Mostly Cloudy
4:20 PM 60.8 °F 57.2 °F 88% 30.04 in 6.2 mi SSW 9.2 mph - N/A   Mostly Cloudy
4:50 PM 59.0 °F 57.2 °F 94% 30.04 in 6.2 mi South 8.1 mph - N/A   Mostly Cloudy
5:20 PM 59.0 °F 57.2 °F 94% 30.06 in 6.2 mi SSW 10.4 mph - N/A   Mostly Cloudy
5:50 PM 60 °F 55 °F 78% 30.07 in 14 mi SSW 13.8 mph - -   Scattered Clouds
5:50 PM 59.0 °F 55.4 °F 88% 30.06 in 6.2 mi SW 10.4 mph - N/A   Scattered Clouds
6:20 PM 59.0 °F 55.4 °F 88% 30.06 in 6.2 mi SSW 10.4 mph - N/A   Mostly Cloudy
6:50 PM 59.0 °F 55.4 °F 88% 30.06 in 6.2 mi SW 8.1 mph - N/A   Mostly Cloudy
7:20 PM 59.0 °F 55.4 °F 88% 30.06 in 6.2 mi SSW 6.9 mph - N/A   Mostly Cloudy
7:50 PM 59.0 °F 55.4 °F 88% 30.06 in 6.2 mi SSW 6.9 mph - N/A   Mostly Cloudy
8:20 PM 59.0 °F 57.2 °F 94% 30.06 in 5.0 mi South 8.1 mph - N/A   Mostly Cloudy
8:50 PM 60 °F 57 °F 88% 30.06 in 11 mi South 8.1 mph - - Rain Drizzle
8:50 PM 59.0 °F 57.2 °F 94% 30.06 in 5.6 mi South 9.2 mph - N/A   Mostly Cloudy
9:20 PM 59.0 °F 57.2 °F 94% 30.04 in 6.2 mi SSW 9.2 mph - N/A   Mostly Cloudy
9:50 PM 59.0 °F 57.2 °F 94% 30.04 in 6.2 mi South 11.5 mph - N/A   Mostly Cloudy
10:20 PM 59.0 °F 57.2 °F 94% 30.04 in 6.2 mi SSW 9.2 mph - N/A   Mostly Cloudy
10:50 PM 59.0 °F 57.2 °F 94% 30.04 in 6.2 mi SSW 9.2 mph - N/A   Mostly Cloudy